SAS4552 ENVA-ENBO

Flight info

Callsign SAS4552
Flight time 0h 47m
Altitude 31000
Route NIGEX DCT ODNOS
Aircraft E195/M-SDE3GILORVW/S

Departure

Time 2026-04-20 15:19
Airport Trondheim Airport, Værnes (ENVA)

Arrival

Time 2026-04-20 16:06
Airport Bodø Airport (ENBO)
Time Latitude Longitude Altitude Speed Heading
2026-04-20 14:59 63.45375 10.91259 37 ft 0 kts 90°
2026-04-20 15:11 63.45375 10.91249 37 ft 3 kts 91°
2026-04-20 15:11 63.45376 10.91190 35 ft 4 kts 85°
2026-04-20 15:11 63.45372 10.91147 37 ft 3 kts
2026-04-20 15:12 63.45369 10.91145 36 ft 3 kts
2026-04-20 15:13 63.45374 10.91146 35 ft 2 kts
2026-04-20 15:14 63.45408 10.91146 36 ft 8 kts
2026-04-20 15:14 63.45472 10.91147 37 ft 10 kts 360°
2026-04-20 15:14 63.45554 10.91147 35 ft 14 kts
2026-04-20 15:14 63.45596 10.91317 36 ft 14 kts 87°
2026-04-20 15:15 63.45596 10.91533 37 ft 15 kts 91°
2026-04-20 15:15 63.45595 10.91773 38 ft 16 kts 90°
2026-04-20 15:15 63.45595 10.92032 39 ft 17 kts 90°
2026-04-20 15:15 63.45594 10.92307 40 ft 18 kts 90°
2026-04-20 15:16 63.45594 10.92596 42 ft 19 kts 90°
2026-04-20 15:16 63.45593 10.92883 46 ft 18 kts 90°
2026-04-20 15:16 63.45593 10.93159 50 ft 17 kts 90°
2026-04-20 15:16 63.45592 10.93419 53 ft 17 kts 90°
2026-04-20 15:17 63.45592 10.93673 53 ft 16 kts 90°
2026-04-20 15:17 63.45625 10.93901 51 ft 16 kts 51°
2026-04-20 15:17 63.45710 10.94092 56 ft 18 kts 44°
2026-04-20 15:17 63.45750 10.94128 59 ft 5 kts 313°
2026-04-20 15:18 63.45755 10.94029 58 ft 8 kts 270°
2026-04-20 15:18 63.45756 10.93690 54 ft 46 kts 270°
2026-04-20 15:18 63.45760 10.92438 41 ft 113 kts 269°
2026-04-20 15:18 63.45775 10.90273 128 ft 156 kts 269°
2026-04-20 15:19 63.45836 10.87837 875 ft 160 kts 272°
2026-04-20 15:19 63.45916 10.85302 1509 ft 171 kts 274°
2026-04-20 15:19 63.45930 10.82495 1920 ft 189 kts 269°
2026-04-20 15:19 63.45834 10.79413 2346 ft 210 kts 269°
2026-04-20 15:20 63.45796 10.75983 2894 ft 224 kts 271°
2026-04-20 15:20 63.45801 10.72441 3541 ft 240 kts 271°
2026-04-20 15:20 63.45804 10.68599 4199 ft 250 kts 271°
2026-04-20 15:20 63.45802 10.64681 4987 ft 255 kts 270°
2026-04-20 15:21 63.45796 10.60700 5778 ft 257 kts 271°
2026-04-20 15:21 63.46089 10.56791 6528 ft 258 kts 292°
2026-04-20 15:21 63.47175 10.53564 7121 ft 266 kts 321°
2026-04-20 15:21 63.48843 10.51743 7694 ft 273 kts 346°
2026-04-20 15:22 63.50760 10.51506 8294 ft 279 kts
2026-04-20 15:22 63.52716 10.51788 8881 ft 285 kts
2026-04-20 15:22 63.54669 10.52677 9482 ft 290 kts 19°
2026-04-20 15:22 63.56506 10.54557 10156 ft 292 kts 27°
2026-04-20 15:23 63.58308 10.56782 10638 ft 302 kts 29°
2026-04-20 15:23 63.60189 10.59163 10916 ft 318 kts 29°
2026-04-20 15:23 63.62132 10.61604 11457 ft 324 kts 29°
2026-04-20 15:23 63.64121 10.64091 12028 ft 330 kts 30°
2026-04-20 15:24 63.66128 10.66604 12763 ft 330 kts 30°
2026-04-20 15:24 63.68148 10.69132 13491 ft 333 kts 30°
2026-04-20 15:24 63.70190 10.71685 14215 ft 337 kts 30°
2026-04-20 15:24 63.72259 10.74216 14948 ft 339 kts 30°
2026-04-20 15:25 63.74344 10.76768 15622 ft 343 kts 30°
2026-04-20 15:25 63.76422 10.79322 16313 ft 346 kts 30°
2026-04-20 15:25 63.78572 10.81970 17016 ft 349 kts 30°
2026-04-20 15:25 63.80715 10.84609 17685 ft 352 kts 30°
2026-04-20 15:26 63.82870 10.87280 18363 ft 355 kts 30°
2026-04-20 15:26 63.85050 10.89977 18999 ft 358 kts 30°
2026-04-20 15:26 63.87248 10.92706 19550 ft 362 kts 31°
2026-04-20 15:26 63.89431 10.95428 20111 ft 364 kts 31°
2026-04-20 15:27 63.91663 10.98208 20640 ft 367 kts 31°
2026-04-20 15:27 63.93910 11.01014 21194 ft 369 kts 30°
2026-04-20 15:27 63.96165 11.03836 21717 ft 372 kts 30°
2026-04-20 15:27 63.98441 11.06690 22243 ft 375 kts 30°
2026-04-20 15:28 64.00738 11.09572 22783 ft 378 kts 30°
2026-04-20 15:28 64.03053 11.12481 23312 ft 382 kts 30°
2026-04-20 15:28 64.05387 11.15426 23837 ft 385 kts 30°
2026-04-20 15:28 64.07742 11.18405 24320 ft 388 kts 30°
2026-04-20 15:29 64.10114 11.21407 24789 ft 391 kts 30°
2026-04-20 15:29 64.12498 11.24428 25272 ft 394 kts 30°
2026-04-20 15:29 64.14902 11.27482 25751 ft 396 kts 30°
2026-04-20 15:29 64.17313 11.30594 26211 ft 399 kts 34°
2026-04-20 15:30 64.19406 11.34713 26584 ft 397 kts 53°
2026-04-20 15:30 64.21021 11.39855 27031 ft 398 kts 58°
2026-04-20 15:30 64.22591 11.45113 27426 ft 400 kts 58°
2026-04-20 15:30 64.24182 11.50394 27825 ft 403 kts 57°
2026-04-20 15:31 64.25789 11.55698 28210 ft 406 kts 57°
2026-04-20 15:31 64.27408 11.61037 28572 ft 408 kts 57°
2026-04-20 15:31 64.29036 11.66410 28964 ft 410 kts 57°
2026-04-20 15:31 64.30667 11.71822 29345 ft 412 kts 58°
2026-04-20 15:32 64.32305 11.77269 29722 ft 415 kts 58°
2026-04-20 15:32 64.33949 11.82757 30068 ft 417 kts 58°
2026-04-20 15:32 64.35603 11.88298 30425 ft 419 kts 58°
2026-04-20 15:32 64.37255 11.93849 30736 ft 421 kts 58°
2026-04-20 15:33 64.39154 11.99041 31004 ft 427 kts 44°
2026-04-20 15:33 64.41623 12.02915 31277 ft 432 kts 26°
2026-04-20 15:33 64.44402 12.05513 31665 ft 432 kts 22°
2026-04-20 15:34 64.50150 12.10345 31537 ft 450 kts 21°
2026-04-20 15:34 64.56150 12.15417 31443 ft 464 kts 21°
2026-04-20 15:35 64.62245 12.20670 31434 ft 468 kts 21°
2026-04-20 15:35 64.68317 12.25932 31433 ft 469 kts 21°
2026-04-20 15:36 64.74428 12.31252 31434 ft 469 kts 21°
2026-04-20 15:36 64.80535 12.36593 31432 ft 468 kts 21°
2026-04-20 15:37 64.86633 12.41958 31445 ft 468 kts 21°
2026-04-20 15:37 64.92730 12.47343 31439 ft 468 kts 21°
2026-04-20 15:38 64.98816 12.52747 31448 ft 468 kts 21°
2026-04-20 15:38 65.04907 12.58178 31433 ft 468 kts 21°
2026-04-20 15:39 65.10990 12.63631 31448 ft 467 kts 21°
2026-04-20 15:39 65.17068 12.69110 31448 ft 467 kts 21°
2026-04-20 15:40 65.23145 12.74610 31448 ft 467 kts 21°
2026-04-20 15:40 65.29221 12.80137 31448 ft 467 kts 21°
2026-04-20 15:41 65.35296 12.85692 31450 ft 467 kts 21°
2026-04-20 15:41 65.41367 12.91273 31464 ft 467 kts 20°
2026-04-20 15:42 65.47434 12.96874 31457 ft 467 kts 21°
2026-04-20 15:42 65.53505 13.02507 31458 ft 467 kts 21°
2026-04-20 15:43 65.59523 13.08122 31452 ft 467 kts 21°
2026-04-20 15:43 65.65580 13.13799 31457 ft 467 kts 21°
2026-04-20 15:44 65.71632 13.19502 31455 ft 466 kts 20°
2026-04-20 15:44 65.77677 13.25223 31459 ft 466 kts 20°
2026-04-20 15:45 65.83715 13.30966 31453 ft 466 kts 20°
2026-04-20 15:45 65.89760 13.36748 31453 ft 466 kts 20°
2026-04-20 15:46 65.95795 13.42547 31456 ft 466 kts 20°
2026-04-20 15:46 65.98804 13.45446 31327 ft 463 kts 20°
2026-04-20 15:46 66.01766 13.48325 30950 ft 450 kts 20°
2026-04-20 15:46 66.04642 13.51132 30426 ft 442 kts 20°
2026-04-20 15:47 66.07480 13.53909 29846 ft 434 kts 20°
2026-04-20 15:47 66.10264 13.56640 29212 ft 428 kts 20°
2026-04-20 15:47 66.13002 13.59329 28678 ft 420 kts 20°
2026-04-20 15:47 66.15703 13.61989 28095 ft 415 kts 20°
2026-04-20 15:48 66.18366 13.64627 27562 ft 411 kts 20°
2026-04-20 15:48 66.21008 13.67254 27012 ft 409 kts 20°
2026-04-20 15:48 66.23652 13.69890 26458 ft 409 kts 20°
2026-04-20 15:48 66.26287 13.72528 25947 ft 407 kts 20°
2026-04-20 15:49 66.28912 13.75153 25385 ft 406 kts 20°
2026-04-20 15:49 66.31435 13.78244 24863 ft 404 kts 28°
2026-04-20 15:49 66.33772 13.81950 24321 ft 402 kts 31°
2026-04-20 15:49 66.36138 13.85720 23765 ft 397 kts 30°
2026-04-20 15:50 66.38479 13.89293 23275 ft 391 kts 29°
2026-04-20 15:50 66.40775 13.92722 22729 ft 388 kts 28°
2026-04-20 15:50 66.43079 13.96137 22252 ft 384 kts 28°
2026-04-20 15:50 66.45377 13.99537 21741 ft 382 kts 28°
2026-04-20 15:51 66.47656 14.02914 21205 ft 381 kts 28°
2026-04-20 15:51 66.49922 14.06278 20716 ft 378 kts 28°
2026-04-20 15:51 66.52177 14.09633 20242 ft 375 kts 28°
2026-04-20 15:51 66.54413 14.12969 19708 ft 374 kts 28°
2026-04-20 15:52 66.56634 14.16291 19259 ft 369 kts 28°
2026-04-20 15:52 66.58839 14.19593 18751 ft 367 kts 28°
2026-04-20 15:52 66.61025 14.22876 18207 ft 364 kts 28°
2026-04-20 15:53 66.65307 14.29324 17265 ft 357 kts 28°
2026-04-20 15:53 66.67426 14.32525 16874 ft 353 kts 28°
2026-04-20 15:53 66.69531 14.35713 16361 ft 353 kts 28°
2026-04-20 15:53 66.71635 14.38874 15916 ft 349 kts 26°
2026-04-20 15:54 66.73801 14.41534 15458 ft 345 kts 20°
2026-04-20 15:54 66.76004 14.43909 15009 ft 341 kts 20°
2026-04-20 15:54 66.78173 14.46314 14526 ft 339 kts 21°
2026-04-20 15:54 66.80305 14.48757 14097 ft 334 kts 22°
2026-04-20 15:55 66.82396 14.51204 13648 ft 328 kts 22°
2026-04-20 15:55 66.84443 14.53634 13237 ft 322 kts 22°
2026-04-20 15:55 66.86465 14.56023 12788 ft 319 kts 22°
2026-04-20 15:55 66.88456 14.58424 12373 ft 315 kts 22°
2026-04-20 15:56 66.90421 14.60821 11956 ft 311 kts 22°
2026-04-20 15:56 66.92359 14.63176 11553 ft 308 kts 22°
2026-04-20 15:56 66.93636 14.64727 11276 ft 306 kts 22°
2026-04-20 15:56 66.95546 14.67055 10884 ft 303 kts 22°
2026-04-20 15:57 66.98056 14.70111 10346 ft 301 kts 22°
2026-04-20 15:57 66.99944 14.72413 9926 ft 298 kts 22°
2026-04-20 15:57 67.01801 14.74688 9551 ft 294 kts 22°
2026-04-20 15:57 67.03632 14.76933 9162 ft 291 kts 23°
2026-04-20 15:58 67.04863 14.78449 8897 ft 289 kts 23°
2026-04-20 15:58 67.06668 14.80675 8510 ft 286 kts 23°
2026-04-20 15:58 67.08456 14.82867 8140 ft 284 kts 23°
2026-04-20 15:58 67.10225 14.85062 7673 ft 282 kts 24°
2026-04-20 15:59 67.12051 14.87311 6877 ft 296 kts 24°
2026-04-20 15:59 67.13895 14.89591 6503 ft 291 kts 24°
2026-04-20 15:59 67.15704 14.91838 6104 ft 287 kts 24°
2026-04-20 15:59 67.17473 14.94009 5719 ft 282 kts 21°
2026-04-20 16:00 67.19373 14.95138 5389 ft 275 kts
2026-04-20 16:00 67.21269 14.94944 5023 ft 270 kts 353°
2026-04-20 16:00 67.23103 14.94497 4611 ft 257 kts 354°
2026-04-20 16:00 67.24830 14.94202 4284 ft 242 kts 355°
2026-04-20 16:01 67.26461 14.93755 3989 ft 229 kts 343°
2026-04-20 16:01 67.27636 14.91723 4251 ft 186 kts 302°
2026-04-20 16:01 67.28003 14.88783 5021 ft 171 kts 282°
2026-04-20 16:01 67.28253 14.85523 4632 ft 194 kts 285°
2026-04-20 16:02 67.28561 14.82143 4234 ft 192 kts 283°
2026-04-20 16:02 67.28812 14.78738 3833 ft 192 kts 281°
2026-04-20 16:02 67.29055 14.75364 3403 ft 189 kts 282°
2026-04-20 16:02 67.29228 14.72095 3048 ft 178 kts 270°
2026-04-20 16:03 67.29081 14.69023 2776 ft 167 kts 261°
2026-04-20 16:03 67.28907 14.66151 2505 ft 156 kts 262°
2026-04-20 16:03 67.28748 14.63438 2228 ft 149 kts 262°
2026-04-20 16:03 67.28607 14.60841 1965 ft 143 kts 262°
2026-04-20 16:04 67.28490 14.58300 1781 ft 141 kts 263°
2026-04-20 16:04 67.28362 14.55878 1666 ft 129 kts 262°
2026-04-20 16:04 67.28246 14.53541 1577 ft 134 kts 263°
2026-04-20 16:04 67.28109 14.51116 1341 ft 138 kts 260°
2026-04-20 16:05 67.27916 14.48695 1059 ft 137 kts 258°
2026-04-20 16:05 67.27726 14.46308 779 ft 135 kts 258°
2026-04-20 16:05 67.27536 14.43965 508 ft 131 kts 258°
2026-04-20 16:05 67.27352 14.41649 229 ft 131 kts 258°
2026-04-20 16:06 67.27162 14.39410 53 ft 123 kts 258°
2026-04-20 16:06 67.27014 14.37618 48 ft 74 kts 257°
2026-04-20 16:06 67.26946 14.36803 40 ft 28 kts 258°
2026-04-20 16:06 67.26950 14.36515 36 ft 12 kts 335°
2026-04-20 16:07 67.27009 14.36475 41 ft 5 kts 346°
2026-04-20 16:07 67.27037 14.36495 42 ft 3 kts 30°
2026-04-20 16:07 67.27049 14.36540 43 ft 4 kts 65°
2026-04-20 16:07 67.27060 14.36654 43 ft 8 kts 79°
2026-04-20 16:08 67.27073 14.36839 44 ft 11 kts 79°
2026-04-20 16:08 67.27088 14.37033 46 ft 10 kts 78°
2026-04-20 16:08 67.27113 14.37177 49 ft 9 kts 36°
2026-04-20 16:08 67.27187 14.37154 45 ft 11 kts 324°
2026-04-20 16:09 67.27226 14.36951 45 ft 11 kts 299°
2026-04-20 16:09 67.27233 14.36919 46 ft 0 kts 302°